Scottsbluff, NE

1:06 PM MDT on October 18, 2019 (GMT -0600)
Heilig

Weather History for KBFF - August, 2019

Change the Weather History Date:

Sunday, August 11, 2019

  Actual Average Record
Temperature  
Mean Temperature 75 °F -  
Max Temperature 87 °F 88 °F 103 °F (1969)
Min Temperature 63 °F 56 °F 42 °F (1907)
Cooling Degree Days 10    
Growing Degree Days 25 (Base 50)    
Moisture  
Dew Point 65 °F    
Average Humidity 85    
Maximum Humidity 97    
Minimum Humidity 53    
Precipitation  
Precipitation 0.47 in - - ()
Sea Level Pressure  
Sea Level Pressure 29.92 in    
Wind  
Wind Speed 8 mph (SE)    
Max Wind Speed 22 mph    
Max Gust Speed 31 mph    
Visibility 9 miles    
Events Rain , Thunderstorm    
Averages and records for this station are not official NWS values.
T = Trace of Precipitation, MM = Missing Value Source: NWS Daily Summary

Daily Weather History Graph

Daily Weather History Graph

Search for Another Location

Airport or City:

Astronomy

Aug. 11, 2019 Rise Set
Actual Time 5:58 AM MDT 8:00 PM MDT
Civil Twilight 5:27 AM MDT 8:30 PM MDT
Nautical Twilight 4:50 AM MDT 9:07 PM MDT
Astronomical Twilight 4:09 AM MDT 9:48 PM MDT
Moon 5:43 PM MDT (8/11) 2:18 AM MDT (8/11)
Length of Visible Light 15h 02m
Length of Day
14h 02m
Waxing Gibbous, 87% of the Moon is Illuminated
Aug 11
Waxing Gibbous
Aug 15
Full
Aug 23
Last Quarter
Aug 30
New
Sep 5
First Quarter

Hourly Weather History & Observations

Time (MDT) Temp. Heat Index Dew Point Humidity Pressure Visibility Wind Dir Wind Speed Gust Speed Precip Events Conditions
12:00 AM 70.0 °F - 62.1 °F 76% 30.05 in 10.0 mi ESE 8.1 mph - N/A   Scattered Clouds
12:53 AM 66.0 °F - 62.1 °F 87% 29.92 in 10.0 mi ESE 5.8 mph - N/A   Clear
1:53 AM 63.0 °F - 61.0 °F 93% 29.91 in 10.0 mi East 4.6 mph - N/A   Clear
2:53 AM 63.0 °F - 61.0 °F 93% 29.91 in 10.0 mi East 4.6 mph - N/A   Clear
3:53 AM 63.0 °F - 61.0 °F 93% 29.91 in 10.0 mi NE 3.5 mph - N/A   Clear
4:53 AM 64.9 °F - 63.0 °F 93% 29.92 in 10.0 mi ENE 6.9 mph - N/A   Clear
5:53 AM 63.0 °F - 62.1 °F 97% 29.91 in 10.0 mi NE 3.5 mph - N/A   Clear
6:29 AM 64.0 °F - 63.0 °F 96% 30.07 in 10.0 mi Calm Calm - N/A   Mostly Cloudy
6:53 AM 66.0 °F - 64.0 °F 93% 29.94 in 10.0 mi Calm Calm - N/A   Overcast
7:53 AM 68.0 °F - 64.9 °F 90% 29.94 in 10.0 mi SE 5.8 mph - N/A   Overcast
8:53 AM 73.0 °F - 66.0 °F 79% 29.93 in 10.0 mi SSE 8.1 mph - N/A   Mostly Cloudy
9:53 AM 75.9 °F - 64.9 °F 69% 29.92 in 10.0 mi East 6.9 mph - N/A   Mostly Cloudy
10:53 AM 79.0 °F - 64.9 °F 62% 29.92 in 10.0 mi East 4.6 mph - N/A   Scattered Clouds
11:53 AM 79.0 °F - 66.0 °F 64% 29.91 in 10.0 mi ESE 9.2 mph - N/A   Clear
12:53 PM 80.1 °F 82.1 °F 66.0 °F 62% 29.89 in 10.0 mi ESE 6.9 mph - N/A   Clear
1:53 PM 84.9 °F 87.1 °F 66.0 °F 53% 29.86 in 10.0 mi ESE 16.1 mph - N/A   Clear
2:53 PM 84.9 °F 87.1 °F 66.0 °F 53% 29.84 in 10.0 mi SE 17.3 mph - N/A   Clear
3:53 PM 78.1 °F - 66.9 °F 68% 29.86 in 10.0 mi SE 13.8 mph - N/A   Clear
4:51 PM 73.4 °F - 69.8 °F 88% 29.99 in 4.0 mi SSW 8.1 mph - 0.01 in Rain , Thunderstorm Rain
4:53 PM 73.0 °F - 70.0 °F 90% 29.87 in 4.0 mi SW 9.2 mph - 0.02 in Rain , Thunderstorm Rain
5:03 PM 72.0 °F - 69.1 °F 91% 30.00 in 2.0 mi SW 18.4 mph 29.9 mph 0.02 in Rain , Thunderstorm Thunderstorms and Rain
5:08 PM 69.8 °F - 66.2 °F 88% 29.99 in 0.8 mi SW 21.9 mph 31.1 mph N/A Rain , Thunderstorm Heavy Thunderstorms and Rain
5:24 PM 68.0 °F - 64.9 °F 90% 29.97 in 2.0 mi SW 13.8 mph 19.6 mph 0.44 in Rain , Thunderstorm Thunderstorms and Rain
5:28 PM 68.0 °F - 64.9 °F 90% 29.97 in 4.0 mi SSW 17.3 mph 25.3 mph 0.45 in Rain , Thunderstorm Light Thunderstorms and Rain
5:37 PM 69.1 °F - 64.9 °F 87% 29.97 in 10.0 mi SW 17.3 mph 28.8 mph 0.45 in Rain , Thunderstorm Light Thunderstorms and Rain
5:53 PM 66.9 °F - 64.0 °F 90% 29.86 in 8.0 mi South 13.8 mph 25.3 mph 0.45 in Rain , Thunderstorm Light Rain
6:11 PM 66.9 °F - 64.0 °F 90% 29.92 in 7.0 mi ESE 15.0 mph - 0.04 in Rain Light Rain
6:19 PM 68.0 °F - 64.0 °F 87% 29.91 in 10.0 mi ESE 12.7 mph - 0.05 in Rain Light Rain
6:53 PM 70.0 °F - 64.9 °F 84% 29.80 in 10.0 mi NE 4.6 mph - 0.05 in   Clear
7:53 PM 68.0 °F - 64.9 °F 90% 29.83 in 10.0 mi Calm Calm - N/A   Clear
8:53 PM 66.9 °F - 64.0 °F 90% 29.84 in 10.0 mi East 5.8 mph - N/A   Clear
9:53 PM 66.0 °F - 64.0 °F 93% 29.87 in 10.0 mi ESE 8.1 mph - N/A   Clear
10:43 PM 66.0 °F - 64.0 °F 93% 29.99 in 10.0 mi ESE 5.8 mph - N/A   Mostly Cloudy
10:53 PM 66.0 °F - 64.0 °F 93% 29.85 in 10.0 mi SE 5.8 mph - N/A   Mostly Cloudy
11:17 PM 64.9 °F - 64.0 °F 97% 29.97 in 10.0 mi ESE 4.6 mph - N/A   Scattered Clouds
11:24 PM 64.9 °F - 64.0 °F 97% 29.97 in 10.0 mi Calm Calm - N/A   Mostly Cloudy
11:53 PM 64.9 °F - 64.0 °F 97% 29.83 in 10.0 mi ESE 5.8 mph - N/A   Scattered Clouds